Location: Unspecified
(0.0000°N, 0.0000°E)
Time: 17:46:12
(UTC+00:00)

AO-73 - Pass Details

Date: 01 October 2021
Orbit: 580 x 662 km, 97.6° (Epoch: 22 October)

Event Time Altitude Azimuth Distance (km) Brightness Sun altitude
Rises 03:54:21 0° 23° (NNE) 2,781 ? -28.8°
Reaches altitude 10° 03:56:34 10° 31° (NNE) 1,885 ? -28.2°
Maximum altitude 04:00:25 41° 102° (ESE) 841 ? -27.3°
Drops below altitude 10° 04:04:19 10° 172° (S) 1,907 ? -26.3°
Sets 04:06:34 0° 179° (S) 2,818 ? -25.7°
